GW7057 Weather Reports


time (UTC)temp
C
wind
direction
speed
KPH
gust
KPH
rain 1hr
cm
rain 24hr
cm
rain mn
cm
humidity
%
barometer
mb
20260506202701 14 133 3.2 6.4 0.00 0.33 0.33 93 1004.7
20260506202156 14 140 12.9 14.5 0.00 0.33 0.33 93 1004.4
20260506201654 14 135 4.8 12.9 0.00 0.33 0.33 92 1004.6
20260506201150 14 227 6.4 8.0 0.05 0.33 0.33 92 1004.8
20260506200647 14 202 4.8 9.7 0.00 0.30 0.30 92 1004.6
20260506200144 14 172 4.8 12.9 0.00 0.30 0.30 92 1004.7
20260506195640 14 165 4.8 20.9 0.00 0.30 0.30 92 1004.7
20260506195137 14 153 4.8 12.9 0.00 0.30 0.30 92 1004.7
20260506194634 14 133 4.8 11.3 0.00 0.30 0.30 92 1004.8
20260506194130 14 235 4.8 9.7 0.00 0.30 0.30 92 1005.0
20260506193628 14 159 11.3 22.5 0.00 0.30 0.30 92 1005.1
20260506193125 14 195 9.7 12.9 0.00 0.30 0.30 92 1005.0
20260506192622 14 116 4.8 14.5 0.00 0.30 0.30 92 1005.0
20260506192118 14 171 3.2 16.1 0.05 0.30 0.30 92 1004.9
20260506191615 14 211 3.2 6.4 0.05 0.30 0.30 92 1005.0
20260506191110 14 303 3.2 9.7 0.05 0.30 0.30 92 1005.1
20260506190609 14 146 3.2 8.0 0.18 0.30 0.30 92 1005.1
20260506190105 14 124 14.5 17.7 0.13 0.28 0.28 92 1005.2
20260506185602 14 179 3.2 8.0 0.13 0.28 0.28 92 1005.3
20260506185058 14 162 4.8 9.7 0.13 0.25 0.25 92 1005.2
20260506184556 14 98 3.2 12.9 0.13 0.25 0.25 92 1005.0
20260506184053 15 113 6.4 14.5 0.18 0.23 0.23 91 1005.0
20260506183549 15 119 6.4 12.9 0.23 0.23 0.23 91 1005.0
20260506183046 15 73 0.0 8.0 0.36 0.20 0.20 90 1005.2
20260506182543 15 150 12.9 12.9 0.36 0.18 0.18 89 1005.4
20260506182040 15 126 4.8 6.4 0.30 0.15 0.15 89 1005.5
20260506181538 15 143 3.2 8.0 0.23 0.13 0.13 87 1005.5
20260506181035 15 302 3.2 8.0 0.18 0.10 0.10 86 1005.7
20260506180531 16 140 3.2 6.4 0.18 0.08 0.08 86 1005.8
20260506180028 16 137 6.4 14.5 0.13 0.08 0.08 84 1006.2
20260506175525 16 149 4.8 8.0 0.05 0.05 0.05 84 1006.1
20260506175021 16 231 6.4 12.9 0.13 0.05 0.05 83 1005.9
20260506174520 16 123 3.2 17.7 0.13 0.05 0.05 81 1006.2
20260506174015 16 226 16.1 19.3 0.13 0.03 0.03 79 1006.2
20260506173513 17 161 8.0 19.3 0.13 0.03 0.03 77 1006.4
20260506173010 17 157 0.0 14.5 0.00 0.00 0.00 75 1006.6
20260506172508 18 217 8.0 27.4 0.00 0.00 0.00 71 1006.3
20260506172003 18 152 11.3 24.1 0.00 0.00 0.00 67 1006.1
20260506171501 18 357 6.4 25.7 0.00 0.00 0.00 65 1006.2
20260506170958 19 160 9.7 19.3 0.00 0.00 0.00 64 1005.9
20260506170455 19 163 4.8 12.9 0.00 0.00 0.00 63 1005.9
20260506165953 20 122 4.8 14.5 0.00 0.00 0.00 63 1005.9
20260506165452 20 191 6.4 14.5 0.00 0.00 0.00 62 1005.9
20260506164947 20 198 8.0 11.3 0.00 0.00 0.00 62 1005.9
20260506164444 20 235 19.3 22.5 0.00 0.00 0.00 61 1006.1
20260506163942 20 178 6.4 19.3 0.00 0.00 0.00 61 1005.9
20260506163437 20 214 12.9 20.9 0.00 0.00 0.00 60 1005.9
20260506162932 20 263 3.2 22.5 0.00 0.00 0.00 60 1005.8
20260506162430 20 244 11.3 12.9 0.00 0.00 0.00 60 1006.1
20260506161927 20 225 8.0 16.1 0.00 0.00 0.00 60 1006.3
20260506161425 20 149 20.9 24.1 0.00 0.00 0.00 60 1006.3
20260506160922 20 131 9.7 12.9 0.00 0.00 0.00 60 1006.6
20260506160419 20 130 3.2 11.3 0.00 0.00 0.00 60 1006.5
20260506155917 20 181 8.0 11.3 0.00 0.00 0.00 58 1006.4
20260506155414 20 180 6.4 14.5 0.00 0.00 0.00 58 1006.5
20260506153531 20 195 4.8 22.5 0.00 0.00 0.00 59 1006.6
20260506153028 20 186 8.0 19.3 0.00 0.00 0.00 59 1006.6
20260506152525 20 214 4.8 27.4 0.00 0.00 0.00 59 1006.8
20260506152023 20 156 6.4 20.9 0.00 0.00 0.00 60 1006.8
20260506151520 20 298 4.8 20.9 0.00 0.00 0.00 61 1006.7
20260506151018 20 18 1.6 22.5 0.00 0.00 0.00 61 1007.0
20260506150514 20 170 6.4 9.7 0.00 0.00 0.00 62 1007.0
20260506150011 20 173 4.8 12.9 0.00 0.00 0.00 63 1007.0
20260506145507 20 134 9.7 20.9 0.00 0.00 0.00 62 1007.0
20260506145005 20 236 3.2 19.3 0.00 0.00 0.00 62 1006.9
20260506144501 19 194 9.7 20.9 0.00 0.00 0.00 63 1007.3
20260506143959 19 148 12.9 14.5 0.00 0.00 0.00 64 1007.4
20260506143456 18 223 8.0 17.7 0.00 0.00 0.00 66 1007.3
20260506142955 18 133 8.0 17.7 0.00 0.00 0.00 66 1007.3
20260506142452 18 151 3.2 11.3 0.00 0.00 0.00 66 1007.3
20260506141950 18 198 9.7 17.7 0.00 0.00 0.00 66 1007.2
20260506141447 18 239 3.2 11.3 0.00 0.00 0.00 67 1007.3
20260506140946 18 221 4.8 11.3 0.00 0.00 0.00 67 1007.2
20260506140442 18 229 9.7 12.9 0.00 0.00 0.00 67 1007.2
20260506135939 18 164 3.2 9.7 0.00 0.00 0.00 68 1007.0
20260506135437 18 257 4.8 20.9 0.00 0.00 0.00 68 1006.9
20260506134932 18 225 6.4 20.9 0.00 0.00 0.00 68 1006.9
20260506134429 18 147 6.4 17.7 0.00 0.00 0.00 68 1006.8
20260506133926 18 166 6.4 14.5 0.00 0.00 0.00 69 1007.0
20260506133423 18 231 8.0 19.3 0.00 0.00 0.00 70 1007.1
20260506132920 18 243 3.2 14.5 0.00 0.00 0.00 70 1007.1
20260506132416 18 222 8.0 24.1 0.00 0.00 0.00 71 1007.2
20260506131914 17 341 3.2 9.7 0.00 0.00 0.00 72 1007.2
20260506131410 17 157 11.3 11.3 0.00 0.00 0.00 73 1007.2
20260506130908 17 216 6.4 19.3 0.00 0.00 0.00 73 1007.3
20260506130404 17 192 1.6 16.1 0.00 0.00 0.00 75 1007.6
20260506125902 16 208 3.2 8.0 0.00 0.00 0.00 76 1007.8
20260506125400 16 198 6.4 20.9 0.00 0.00 0.00 76 1007.7
20260506124858 16 214 4.8 8.0 0.00 0.00 0.00 77 1007.6
20260506124355 16 158 4.8 8.0 0.00 0.00 0.00 77 1007.7
20260506123853 16 180 4.8 8.0 0.00 0.00 0.00 78 1007.8
20260506123351 16 178 3.2 16.1 0.00 0.00 0.00 78 1007.6
20260506122848 16 159 4.8 19.3 0.00 0.00 0.00 78 1007.5
20260506122344 16 258 8.0 19.3 0.00 0.00 0.00 78 1007.8
20260506121843 16 144 8.0 17.7 0.00 0.00 0.00 77 1007.7
20260506121339 16 137 4.8 14.5 0.00 0.00 0.00 78 1007.5
20260506120837 16 139 0.0 6.4 0.00 0.00 0.00 80 1007.9
20260506120334 15 132 8.0 14.5 0.00 0.00 0.00 79 1008.0
20260506115831 15 143 4.8 11.3 0.00 0.00 0.00 79 1008.0
20260506115330 15 126 9.7 16.1 0.00 0.00 0.00 79 1007.6
20260506114827 15 195 4.8 16.1 0.00 0.00 0.00 79 1007.7
20260506114325 15 231 6.4 17.7 0.00 0.00 0.00 80 1007.5
20260506113823 15 152 16.1 19.3 0.00 0.00 0.00 81 1007.6
20260506113320 15 209 1.6 16.1 0.00 0.00 0.00 81 1007.7
20260506112817 15 250 4.8 14.5 0.00 0.00 0.00 82 1007.9
20260506112314 14 207 3.2 16.1 0.00 0.00 0.00 83 1007.9
20260506111811 14 197 9.7 14.5 0.00 0.00 0.00 84 1007.9
20260506111309 14 247 4.8 6.4 0.00 0.00 0.00 84 1007.9
20260506110807 14 153 11.3 17.7 0.00 0.00 0.00 83 1008.2
20260506110304 14 124 6.4 11.3 0.00 0.00 0.00 83 1008.3
20260506105800 14 214 8.0 20.9 0.00 0.00 0.00 83 1008.3
20260506105257 14 144 6.4 12.9 0.00 0.00 0.00 83 1007.9
20260506104755 14 145 6.4 14.5 0.00 0.00 0.00 83 1007.9
20260506104252 14 164 3.2 12.9 0.00 0.00 0.00 84 1007.8
20260506103749 13 146 6.4 11.3 0.00 0.00 0.00 84 1007.7
20260506103247 13 208 4.8 16.1 0.00 0.00 0.00 85 1007.7
20260506102744 13 207 6.4 9.7 0.00 0.00 0.00 85 1007.7
20260506102242 13 147 11.3 11.3 0.00 0.00 0.00 85 1007.7
20260506101739 13 189 3.2 14.5 0.00 0.00 0.00 85 1007.9
20260506101235 13 132 4.8 12.9 0.00 0.00 0.00 85 1007.7
20260506100733 13 174 6.4 19.3 0.00 0.00 0.00 85 1007.6
20260506100231 13 71 1.6 14.5 0.00 0.00 0.00 84 1007.9
20260506095729 13 193 3.2 22.5 0.00 0.00 0.00 84 1007.7
20260506095226 13 175 4.8 11.3 0.00 0.00 0.00 83 1007.7
20260506094723 13 138 14.5 16.1 0.00 0.00 0.00 84 1007.7
20260506094221 13 230 3.2 14.5 0.00 0.00 0.00 84 1007.6
20260506093720 13 167 3.2 11.3 0.00 0.00 0.00 83 1007.8
20260506093216 13 125 8.0 11.3 0.00 0.00 0.00 83 1007.8
20260506092714 13 144 4.8 9.7 0.00 0.00 0.00 83 1007.8
20260506092211 13 226 1.6 17.7 0.00 0.00 0.00 82 1007.7
20260506091709 13 168 8.0 9.7 0.00 0.00 0.00 82 1007.7
20260506091206 14 152 12.9 14.5 0.00 0.00 0.00 82 1007.6
20260506090704 14 169 11.3 14.5 0.00 0.00 0.00 82 1007.8
20260506090200 14 134 16.1 16.1 0.00 0.00 0.00 81 1007.8
20260506085657 14 144 6.4 14.5 0.00 0.00 0.00 81 1007.8
20260506085153 14 116 0.0 16.1 0.00 0.00 0.00 80 1007.8
20260506084650 14 136 3.2 20.9 0.00 0.00 0.00 80 1007.6
20260506084147 14 137 11.3 17.7 0.00 0.00 0.00 81 1007.7
20260506083644 14 135 9.7 9.7 0.00 0.00 0.00 80 1007.8
20260506083142 14 128 4.8 9.7 0.00 0.00 0.00 80 1007.6
20260506082638 14 76 3.2 9.7 0.00 0.00 0.00 80 1007.7
20260506082133 14 136 14.5 16.1 0.00 0.00 0.00 80 1007.9
20260506081632 14 165 6.4 9.7 0.00 0.00 0.00 80 1007.8
20260506081129 14 196 6.4 11.3 0.00 0.00 0.00 79 1008.1
20260506080627 14 120 3.2 11.3 0.00 0.00 0.00 79 1007.8
20260506080123 14 139 4.8 9.7 0.00 0.00 0.00 79 1007.8
20260506073107 14 169 3.2 9.7 0.00 0.00 0.00 79 1007.8
20260506072604 14 158 6.4 9.7 0.00 0.00 0.00 79 1008.0
20260506072102 15 104 1.6 16.1 0.00 0.00 0.00 79 1007.8
20260506071559 15 117 3.2 9.7 0.00 0.00 0.00 78 1007.8
20260506071057 15 160 6.4 12.9 0.00 0.00 0.00 78 1007.8
20260506070554 15 223 3.2 9.7 0.00 0.00 0.00 78 1007.5
20260506062028 15 174 3.2 14.5 0.00 0.00 0.00 76 1007.6
20260506061523 15 222 4.8 16.1 0.00 0.00 0.00 75 1007.7
20260506061021 15 142 8.0 16.1 0.00 0.00 0.00 75 1007.5
20260506060520 15 191 6.4 14.5 0.00 0.00 0.00 74 1007.8
20260506050948 16 179 14.5 14.5 0.00 0.00 0.00 70 1008.0
20260506050446 16 165 4.8 22.5 0.00 0.00 0.00 69 1008.1
20260506044936 16 292 6.4 19.3 0.00 0.00 0.00 68 1008.3
20260506044435 16 245 3.2 14.5 0.00 0.00 0.00 67 1008.1
20260506043931 16 224 4.8 16.1 0.00 0.00 0.00 67 1008.0
20260506043428 16 176 9.7 20.9 0.00 0.00 0.00 67 1008.1
20260506042926 16 138 4.8 11.3 0.00 0.00 0.00 66 1008.0
20260506042425 16 312 4.8 9.7 0.00 0.00 0.00 66 1008.2
20260506041923 16 208 3.2 16.1 0.00 0.00 0.00 66 1008.0
20260506041420 16 212 9.7 19.3 0.00 0.00 0.00 66 1007.9
20260506040917 16 239 4.8 12.9 0.00 0.00 0.00 66 1008.1
20260506040415 16 89 0.0 11.3 0.00 0.00 0.00 65 1008.1
20260506035911 16 240 14.5 14.5 0.00 0.00 0.00 65 1008.1
20260506035409 16 205 6.4 9.7 0.00 0.00 0.00 65 1008.2
20260506034905 16 209 6.4 22.5 0.00 0.00 0.00 64 1008.1
20260506034402 16 168 9.7 14.5 0.00 0.00 0.00 64 1008.1
20260506033859 16 161 3.2 17.7 0.00 0.00 0.00 64 1008.2
20260506033356 16 283 6.4 22.5 0.00 0.00 0.00 64 1008.2
20260506032853 16 146 11.3 17.7 0.00 0.00 0.00 65 1008.2
20260506032350 16 257 14.5 24.1 0.00 0.00 0.00 65 1008.1
20260506031847 16 203 6.4 17.7 0.00 0.00 0.00 65 1008.2
20260506031344 16 159 0.0 16.1 0.00 0.00 0.00 65 1008.2
20260506030842 16 264 6.4 11.3 0.00 0.00 0.00 65 1008.0
20260506030340 16 155 4.8 11.3 0.00 0.00 0.00 65 1008.1
20260506025836 16 144 11.3 12.9 0.00 0.00 0.00 65 1008.0
20260506025332 16 85 3.2 9.7 0.00 0.00 0.00 66 1008.1
20260506024830 16 135 3.2 11.3 0.00 0.00 0.00 65 1008.2
20260506024326 16 139 3.2 14.5 0.00 0.00 0.00 65 1008.1
20260506023823 16 138 4.8 14.5 0.00 0.00 0.00 65 1008.1
20260506023320 16 249 6.4 16.1 0.00 0.00 0.00 65 1008.2
20260506022816 16 173 3.2 12.9 0.00 0.00 0.00 65 1008.2
20260506022314 16 80 3.2 6.4 0.00 0.00 0.00 65 1008.4
20260506021812 16 69 3.2 9.7 0.00 0.00 0.00 65 1008.3
20260506021309 16 248 11.3 11.3 0.00 0.00 0.00 64 1008.2
20260506020805 16 196 8.0 16.1 0.00 0.00 0.00 64 1008.2
20260506020303 16 184 3.2 14.5 0.00 0.00 0.00 64 1008.1
20260506015801 16 153 3.2 6.4 0.00 0.00 0.00 64 1008.1
20260506015258 16 70 4.8 17.7 0.00 0.00 0.00 64 1008.1
20260506014754 16 156 11.3 14.5 0.00 0.00 0.00 63 1008.0
20260506014251 16 232 9.7 9.7 0.00 0.00 0.00 63 1008.0
20260506013748 16 186 1.6 14.5 0.00 0.00 0.00 62 1008.0
20260506013246 16 227 8.0 9.7 0.00 0.00 0.00 62 1007.7
20260506012742 16 147 11.3 14.5 0.00 0.00 0.00 61 1007.9
20260506012239 17 171 6.4 14.5 0.00 0.00 0.00 61 1007.9
20260506011736 17 146 14.5 17.7 0.00 0.00 0.00 60 1007.7
20260506011232 17 107 9.7 11.3 0.00 0.00 0.00 60 1007.7
20260506010731 17 175 3.2 16.1 0.00 0.00 0.00 60 1007.5
20260506010228 17 142 6.4 12.9 0.00 0.00 0.00 59 1007.5
20260506005725 17 217 6.4 9.7 0.00 0.00 0.00 60 1007.4
20260506005222 17 173 4.8 16.1 0.00 0.00 0.00 59 1007.3
20260506004717 17 177 4.8 17.7 0.00 0.00 0.00 59 1007.3
20260506004216 17 202 8.0 14.5 0.00 0.00 0.00 59 1007.4
20260506003711 17 123 6.4 16.1 0.00 0.00 0.00 58 1007.3
20260506003208 18 139 6.4 19.3 0.00 0.00 0.00 58 1007.1
20260506002704 18 254 16.1 17.7 0.00 0.00 0.00 57 1007.1
20260506002200 18 145 6.4 20.9 0.00 0.00 0.00 57 1007.0
20260506001656 18 237 6.4 17.7 0.00 0.00 0.00 58 1007.0
20260506001154 18 167 8.0 14.5 0.00 0.00 0.00 57 1006.8
20260506000650 18 223 4.8 14.5 0.00 0.00 0.00 57 1006.8
20260506000148 18 143 4.8 19.3 0.00 0.00 0.00 56 1006.6
20260505235646 18 147 6.4 12.9 0.00 0.00 0.00 56 1006.6
20260505235143 18 152 6.4 9.7 0.00 0.00 0.00 55 1006.6
20260505234639 18 144 3.2 24.1 0.00 0.00 0.00 54 1006.6
20260505234136 19 168 4.8 14.5 0.00 0.00 0.00 54 1006.6
20260505233633 19 231 6.4 12.9 0.00 0.00 0.00 53 1006.5
20260505233131 19 240 11.3 12.9 0.00 0.00 0.00 53 1006.5
20260505232628 20 111 6.4 16.1 0.00 0.00 0.00 52 1006.3
20260505232126 20 231 8.0 20.9 0.00 0.00 0.00 52 1006.2
20260505231623 20 184 11.3 27.4 0.00 0.00 0.00 52 1006.2
20260505231121 20 75 4.8 9.7 0.00 0.00 0.00 51 1005.8
20260505230619 20 186 3.2 17.7 0.00 0.00 0.00 50 1005.8
20260505230115 20 99 4.8 17.7 0.00 0.00 0.00 49 1005.9
20260505225612 21 255 6.4 9.7 0.00 0.00 0.00 50 1005.8
20260505225108 21 264 6.4 24.1 0.00 0.00 0.00 48 1005.6
20260505224605 21 341 3.2 22.5 0.00 0.00 0.00 49 1005.7
20260505224102 21 126 6.4 16.1 0.00 0.00 0.00 48 1005.8
20260505223559 21 151 3.2 9.7 0.00 0.00 0.00 48 1005.8
20260505223055 21 178 6.4 9.7 0.00 0.00 0.00 47 1005.4
20260505222552 22 134 4.8 14.5 0.00 0.00 0.00 46 1005.4
20260505222048 22 208 0.0 17.7 0.00 0.00 0.00 45 1005.2
20260505221545 22 188 4.8 22.5 0.00 0.00 0.00 45 1005.3
20260505221041 22 128 8.0 20.9 0.00 0.00 0.00 45 1005.0
20260505220539 22 252 8.0 17.7 0.00 0.00 0.00 45 1005.0
20260505220037 22 203 6.4 20.9 0.00 0.00 0.00 45 1005.3
20260505215535 23 187 8.0 20.9 0.00 0.00 0.00 44 1005.5
20260505215032 23 258 8.0 25.7 0.00 0.00 0.00 44 1005.4
20260505214530 22 180 6.4 17.7 0.00 0.00 0.00 45 1005.4
20260505214026 22 156 3.2 14.5 0.00 0.00 0.00 46 1005.0
20260505213525 23 154 6.4 12.9 0.00 0.00 0.00 45 1005.2
20260505213021 23 205 8.0 22.5 0.00 0.00 0.00 44 1005.4
20260505212517 23 133 4.8 19.3 0.00 0.00 0.00 43 1005.3
20260505212014 24 170 9.7 24.1 0.00 0.00 0.00 42 1005.1
20260505211512 24 219 1.6 11.3 0.00 0.00 0.00 43 1004.9
20260505211008 24 195 8.0 30.6 0.00 0.00 0.00 42 1004.9
20260505210505 24 192 4.8 24.1 0.00 0.00 0.00 41 1005.1
20260505210001 25 228 8.0 19.3 0.00 0.00 0.00 41 1004.8
20260505205500 24 168 4.8 22.5 0.00 0.00 0.00 42 1004.8
20260505204956 24 231 24.1 27.4 0.00 0.00 0.00 40 1005.0
20260505204454 25 315 12.9 20.9 0.00 0.00 0.00 39 1005.1
20260505203951 25 239 16.1 20.9 0.00 0.00 0.00 40 1004.8
20260505203448 25 213 16.1 35.4 0.00 0.00 0.00 38 1005.0
20260505202944 25 167 14.5 27.4 0.00 0.00 0.00 38 1005.0